Simultaneous Nadir Overpasses (SNOs) Predictions

Prediction of SNOs between GOES-17 and AQUA Satellite Orbit:

Table of predicted SNOs for the next 14.0 days since TLE Epoch: 4/12/2019
Index Date Time (GOES-17) GOES-17 Lat,Lon AQUA Lat,Lon Distance(km) Time Diff (sec)
1 04/12/2019 22:43:03 0.00,-137.19 0.15,-136.48 81.56 80
2 04/14/2019 22:30:50 0.00,-137.18 0.77,-133.51 417.16 80
3 04/15/2019 10:52:05 -0.00,-137.20 0.30,-138.68 167.36 80
4 04/17/2019 10:37:12 -0.00,-137.19 -0.33,-135.72 167.72 80
5 04/17/2019 22:58:35 0.00,-137.16 -0.78,-140.90 425.54 80
6 04/19/2019 22:46:22 0.00,-137.14 -0.15,-137.94 90.77 80
7 04/21/2019 22:36:48 -0.00,-137.12 0.44,-134.97 243.48 80
8 04/22/2019 10:58:04 0.00,-137.14 0.64,-140.13 340.43 80
9 04/24/2019 10:45:51 0.00,-137.11 -0.01,-137.18 7.60 80
10 04/26/2019 10:30:57 0.00,-137.07 -0.60,-134.21 325.81 80




NCC Satellite Simultaneous Nadir Overpasses (SNOs) Prediction Service
